Current Version              Previous Version:    01  02  03  04  05  06  07  08  09  10  11  12  13  14  15  16  17  18  19  20  21  22  23  24  25  26  27  28  29  30  
   31  32  33  34  35  36  37  38  39  40  41  42  43  44  45  46  47  48  49  50  51  52  53  54  55  56  57  58  59  60  

[Printable]
685
ASUS44 KFWD 231015
RWRTX
NORTH TEXAS HOURLY WEATHER ROUNDUP
NATIONAL WEATHER SERVICE FORT WORTH TX
500 AM CDT WED APR 23 2014

NOTE: "FAIR" INDICATES FEW OR NO CLOUDS BELOW 12,000 FEET WITH NO
SIGNIFICANT WEATHER AND/OR OBSTRUCTIONS TO VISIBILITY.

TXZ118-119-231100-
DALLAS/FORT WORTH METROPLEX

CITY           SKY/WX    TMP DP  RH WIND       PRES   REMARKS
DFW AIRPORT    CLEAR     62  56  80 SE5       29.91S
DALLAS LOVE    CLEAR     62  56  80 SE6       29.91F
FTW MEACHAM    CLEAR     63  57  81 CALM      29.91F
DAL-EXECUTIVE  CLEAR     61  56  83 S3        29.92S
FTW-ALLIANCE   PTCLDY    59  56  89 CALM      29.91S
FTW-NAS-JRB    CLEAR     63  54  72 S5        29.95F
FTW-SPINKS     CLEAR     58  55  91 CALM      29.93S
ARLINGTON      CLEAR     56  54  93 CALM      29.92S
GRAND PRAIRIE  CLEAR     61  55  82 CALM      29.95S
ADDISON        CLEAR     64  56  75 SE7       29.93F
MESQUITE       CLEAR     58  56  95 CALM      29.93S
LANCASTER      CLEAR     56  54  91 CALM      29.94R
$$

TXZ091>094-102>105-117-120-121-131>134-231100-
NORTH CENTRAL TEXAS

CITY           SKY/WX    TMP DP  RH WIND       PRES   REMARKS
SHRMAN/DENISON CLEAR     63  45  52 SE7       29.93S
GAINESVILLE    CLEAR     56  51  82 CALM      29.93F
BOWIE          CLEAR     56  53  88 SE3       29.90F
BRIDGEPORT     CLEAR     54  54 100 CALM      29.92F
DECATUR        CLEAR     64  56  75 S8        29.92S
DENTON         CLEAR     58  55  90 CALM      29.91F
MCKINNEY       CLEAR     55  53  93 CALM      29.92S
GREENVILLE     CLEAR     54  52  94 CALM      29.92F
ROCKWALL       CLEAR     62  52  68 E5        29.91S
TERRELL        CLEAR     58  57  97 CALM      29.93S
WAXAHACHIE     CLEAR     59  56  89 CALM      29.94S
CLEBURNE       CLEAR     61  59  94 CALM      29.94S
GRANBURY       CLEAR     57  55  92 CALM      29.93S
$$

TXZ083>090-098>101-113>116-127>130-139>142-154-155-231100-
WESTERN NORTH TEXAS

CITY           SKY/WX    TMP DP  RH WIND       PRES   REMARKS
WICHITA FALLS  CLEAR     58  53  84 SE9       29.88F
WF-KICKAPOO    CLEAR     59  54  81 SE8       29.90S
VERNON         CLEAR     61  53  74 S9        29.87F
ABILENE        CLEAR     63  53  70 S12       29.90S
ABILENE-DYESS  CLEAR     63  53  69 SE14      29.89S
BRECKENRIDGE   CLEAR     64  55  72 S8        29.91R
GRAHAM         CLEAR     60  54  80 SE7       29.89S
MINERAL WELLS  CLEAR     57  55  93 SE8       29.90F
STEPHENVILLE   CLEAR     57  53  86 CALM      29.96S
COMANCHE       CLEAR     60  55  83 S6        29.93F
BROWNWOOD      PTCLDY    54  48  82 CALM      29.92F
COLEMAN        CLEAR     58  52  79 S6        29.93S
BRADY          CLEAR     59  54  82 SE5       29.93S
$$

TXZ143>147-156>162-174-175-231100-
CENTRAL TEXAS

CITY           SKY/WX    TMP DP  RH WIND       PRES   REMARKS
WACO           CLEAR     55  54  96 CALM      29.92F
WACO-MCGREGOR  CLEAR     57  52  82 CALM      29.93S
HILLSBORO      CLEAR     65  56  71 E8        29.93S
CORSICANA      CLEAR     62  58  86 SE3       29.94S
MEXIA          CLEAR     62  58  87 SE3       29.92S
HEARNE         CLEAR     56  55  94 CALM      29.93S
CAMERON        CLEAR     60  58  94 CALM      29.92S
TEMPLE         CLEAR     61  55  82 SE3       29.96R
KILLEEN        CLEAR     64  57  77 S3        29.93R
KILLEEN-SKYLRK CLEAR    N/A N/A N/A CALM      29.92R
FORT HOOD      CLEAR     62  57  83 CALM      29.93R
HAMILTON       CLEAR     60  55  85 S6        29.94F
LAMPASAS       CLEAR     57  55  95 CALM      29.93S
$$

TXZ095>097-106>112-122>126-135>138-148>153-164>167-231100-
EAST TEXAS

CITY           SKY/WX    TMP DP  RH WIND       PRES   REMARKS
PARIS          CLEAR     55  46  71 E8        29.93S
SULPHUR SPRNGS CLEAR     57  55  91 CALM      29.95S
CLARKSVILLE    CLEAR     59  50  73 CALM      29.93S
MOUNT PLEASANT CLEAR     56  55  99 CALM      29.95R
GILMER         CLEAR     57  57 100 CALM      29.95S
MINEOLA        CLEAR     55  55 100 CALM      29.94S FOG
TYLER          CLEAR     59  55  87 SE6       29.93S
LONGVIEW       CLEAR     57  54  89 CALM      29.93S
MARSHALL       CLEAR     56  54  92 CALM      29.96S
ATHENS         CLEAR     54  54 100 CALM      29.93R
PALESTINE      CLEAR     62  56  81 CALM      29.95S
JACKSONVILLE   CLEAR     63  57  80 S5        29.96R
HENDERSON      CLEAR     55  53  94 CALM      29.95R FOG
NACOGDOCHES    CLEAR     54  50  87 CALM      29.94S
LUFKIN         CLEAR     59  55  87 CALM      29.94R
$$

SUPPLEMENTAL OBSERVATIONS (CENTRAL)

CITY           SKY/WX    TMP DP  RH WIND       PRES   REMARKS
LAKE TEXOMA      N/A     55  54  94 E5          N/A
PAT MAYSE LAKE   N/A     55  48  76 N1          N/A
GREENVILLE       N/A     57  52  82 E1          N/A
CEDAR HILL       N/A     64  57  77 SE3         N/A
ATHENS           N/A     59  57  94 CALM        N/A
PALESTINE        N/A     57  55  94 NW1         N/A
LAKE LIMESTONE   N/A     57  55  94 SE1         N/A
MCGREGOR         N/A     63  57  82 SW2         N/A
TEMPLE           N/A     63  57  82 E2          N/A
$$

SUPPLEMENTAL OBSERVATIONS (WEST)

CITY           SKY/WX    TMP DP  RH WIND       PRES   REMARKS
MILLERS CREEK    N/A     63  50  63 S14         N/A
POSSUM KINGDOM   N/A     63  55  77 SE7         N/A
GRANBURY         N/A     55  52  88 S2          N/A
COMANCHE         N/A     59  54  82 SE8         N/A
HAMBY            N/A     63  52  67 S14         N/A
IVIE RESERVOIR   N/A     61  54  77 SE5         N/A
COLORADO BEND    N/A     63  55  77 S5          N/A
$$

SUPPLEMENTAL OBSERVATIONS (EAST)

CITY           SKY/WX    TMP DP  RH WIND       PRES   REMARKS
CLARKSVILLE      N/A     57  50  77 E3          N/A
TEXARKANA        N/A     52  50  93 CALM        N/A
LINDEN           N/A     55  54  94 CALM        N/A
CADDO LAKE       N/A     54  52  94 CALM        N/A
GILMER           N/A     55  54  94 CALM        N/A
HENDERSON        N/A     54  52  94 SW2         N/A
LUFKIN           N/A     55  54  94 MISG        N/A
S SABINE NF      N/A     57  55  94 CALM        N/A
$$

SUPPLEMENTAL OBSERVATIONS ARE A COLLECTION OF AUTOMATED INSTRUMENTS
THAT ARE MAINTAINED BY A VARIETY OF FEDERAL AND STATE AGENCIES.
CERTAIN ELEMENTS...SUCH AS HUMIDITY VALUES AND SUSTAINED WIND
SPEEDS...MAY BE APPROXIMATED.